Hawthorne, CA

2:29 AM PDT on July 22, 2017 (GMT -0700)
Northrop-Hawthorne Municipal

Weather History for KHHR - December, 2012

Change the Weather History Date:

Wednesday, December 26, 2012

  Actual Average Record
Temperature  
Mean Temperature 57 °F -  
Max Temperature 63 °F 65 °F 86 °F (1947)
Min Temperature 51 °F 47 °F 30 °F (2000)
Degree Days  
Heating Degree Days 8    
Growing Degree Days 7 (Base 50)    
Moisture  
Dew Point 48 °F    
Average Humidity 81    
Maximum Humidity 100    
Minimum Humidity 50    
Precipitation  
Precipitation 0.20 in - - ()
Sea Level Pressure  
Sea Level Pressure 29.96 in    
Wind  
Wind Speed 3 mph (WNW)    
Max Wind Speed 18 mph    
Max Gust Speed 24 mph    
Visibility 6 miles    
Events Rain    
Averages and records for this station are not official NWS values.
T = Trace of Precipitation, MM = Missing Value Source: NWS Daily Summary

Daily Weather History Graph

Daily Weather History Graph

Search for Another Location

Airport or City:

Trip Planner

Search our weather history database for the weather conditions in past years. The results will help you decide how hot, cold, wet, or windy it might be!

Date:

Astronomy

Dec. 26, 2012 Rise Set
Actual Time 6:57 AM PST 4:51 PM PST
Civil Twilight 6:29 AM PST 5:19 PM PST
Nautical Twilight 5:58 AM PST 5:50 PM PST
Astronomical Twilight 5:27 AM PST 6:20 PM PST
Moon 3:47 PM PST (12/26) 5:25 AM PST (12/26)
Length of Visible Light 10h 49m
Length of Day
9h 54m
Waxing Gibbous, 98% of the Moon is Illuminated
Dec 26
Waxing Gibbous
Dec 28
Full
Jan 4
Last Quarter
Jan 11
New
Jan 18
First Quarter

Hourly Weather History & Observations

Time (PST) Temp. Dew Point Humidity Pressure Visibility Wind Dir Wind Speed Gust Speed Precip Events Conditions
12:00 AM 51.8 °F 48.2 °F 88% 30.01 in 7.0 mi Calm Calm - N/A   Mostly Cloudy
12:53 AM 52.0 °F 46.9 °F 83% 29.99 in 7.0 mi East 4.6 mph - N/A   Overcast
1:53 AM 52.0 °F 46.9 °F 83% 29.98 in 7.0 mi SSE 3.5 mph - N/A   Overcast
2:51 AM 51.8 °F 48.2 °F 88% 29.96 in 2.5 mi East 4.6 mph - 0.01 in Rain Light Rain
2:53 AM 51.1 °F 48.0 °F 89% 29.96 in 2.5 mi East 4.6 mph - 0.01 in Rain Light Rain
3:06 AM 51.8 °F 48.2 °F 88% 29.96 in 2.5 mi Calm Calm - 0.01 in Rain Rain
3:18 AM 51.8 °F 48.2 °F 88% 29.96 in 3.0 mi Calm Calm - 0.02 in Rain Light Rain
3:26 AM 51.8 °F 48.2 °F 88% 29.95 in 2.0 mi Calm Calm - 0.03 in Rain Rain
3:53 AM 52.0 °F 50.0 °F 93% 29.95 in 2.0 mi Calm Calm - 0.05 in Rain Light Rain
4:00 AM 51.8 °F 50.0 °F 94% 29.94 in 2.5 mi Calm Calm - 0.01 in Rain Light Rain
4:05 AM 51.8 °F 51.8 °F 100% 29.94 in 3.0 mi Calm Calm - 0.01 in Rain Light Rain
4:08 AM 51.8 °F 51.8 °F 100% 29.94 in 2.5 mi SSE 3.5 mph - 0.01 in Rain Light Rain
4:24 AM 51.8 °F 51.8 °F 100% 29.94 in 3.0 mi South 3.5 mph - 0.02 in Rain Light Rain
4:28 AM 51.8 °F 51.8 °F 100% 29.94 in 4.0 mi Calm Calm - 0.02 in Rain Light Rain
4:42 AM 51.8 °F 51.8 °F 100% 29.93 in 4.0 mi Calm Calm - 0.02 in Rain Light Rain
4:53 AM 52.0 °F 51.1 °F 97% 29.94 in 4.0 mi Calm Calm - 0.02 in   Overcast
5:01 AM 51.8 °F 51.8 °F 100% 29.94 in 4.0 mi Calm Calm - 0.00 in Rain Light Rain
5:13 AM 51.8 °F 51.8 °F 100% 29.93 in 2.5 mi Calm Calm - 0.00 in Rain Light Rain
5:21 AM 51.8 °F 51.8 °F 100% 29.93 in 2.5 mi ESE 3.5 mph - 0.01 in Rain Light Rain
5:25 AM 51.8 °F 51.8 °F 100% 29.93 in 4.0 mi ESE 3.5 mph - 0.01 in Rain Light Rain
5:53 AM 53.1 °F 51.1 °F 93% 29.93 in 7.0 mi Calm Calm - 0.01 in   Overcast
6:18 AM 53.6 °F 51.8 °F 94% 29.93 in 2.5 mi NE 3.5 mph - 0.01 in Rain Rain
6:25 AM 51.8 °F 51.8 °F 100% 29.93 in 1.5 mi NE 4.6 mph - 0.06 in Rain Heavy Rain
6:41 AM 51.8 °F 51.8 °F 100% 29.93 in 3.0 mi ENE 3.5 mph - 0.11 in Rain Light Rain
6:48 AM 51.8 °F 51.8 °F 100% 29.93 in 7.0 mi Calm Calm - 0.11 in   Overcast
6:53 AM 53.1 °F 51.1 °F 93% 29.94 in 9.0 mi Calm Calm - 0.11 in   Overcast
7:46 AM 53.6 °F 51.8 °F 94% 29.96 in 6.0 mi Calm Calm - N/A   Mostly Cloudy
7:53 AM 53.1 °F 51.1 °F 93% 29.96 in 6.0 mi Calm Calm - N/A   Mostly Cloudy
8:35 AM 55.4 °F 51.8 °F 88% 29.97 in 10.0 mi Calm Calm - N/A   Scattered Clouds
8:53 AM 55.9 °F 50.0 °F 80% 29.98 in 10.0 mi NW 4.6 mph - N/A   Scattered Clouds
9:46 AM 57.2 °F 48.2 °F 72% 29.99 in 10.0 mi NW 4.6 mph - N/A   Mostly Cloudy
9:53 AM 57.9 °F 48.0 °F 70% 29.99 in 10.0 mi West 4.6 mph - N/A   Mostly Cloudy
10:11 AM 57.2 °F 46.4 °F 67% 29.99 in 10.0 mi West 8.1 mph - N/A   Scattered Clouds
10:53 AM 59.0 °F 46.0 °F 62% 29.99 in 10.0 mi West 6.9 mph - N/A   Clear
11:53 AM 60.1 °F 45.0 °F 57% 29.96 in 10.0 mi West 6.9 mph - N/A   Clear
12:53 PM 61.0 °F 44.1 °F 54% 29.93 in 10.0 mi West 10.4 mph - N/A   Clear
1:53 PM 63.0 °F 44.1 °F 50% 29.92 in 10.0 mi West 18.4 mph - N/A   Clear
2:53 PM 61.0 °F 45.0 °F 56% 29.92 in 10.0 mi West 13.8 mph 24.2 mph N/A   Clear
3:53 PM 60.1 °F 44.1 °F 55% 29.94 in 10.0 mi West 13.8 mph 21.9 mph N/A   Clear
4:07 PM 60.8 °F 46.4 °F 59% 29.94 in 1.8 mi West 11.5 mph 21.9 mph N/A   Haze
4:22 PM 59.0 °F 46.4 °F 63% 29.94 in 10.0 mi West 9.2 mph 20.7 mph N/A   Clear
4:53 PM 57.9 °F 46.0 °F 65% 29.95 in 10.0 mi WNW 8.1 mph 17.3 mph N/A   Clear
5:53 PM 57.0 °F 45.0 °F 64% 29.97 in 10.0 mi WNW 6.9 mph - N/A   Clear
6:53 PM 55.9 °F 43.0 °F 62% 29.98 in 10.0 mi Calm Calm - N/A   Clear
7:53 PM 55.0 °F 42.1 °F 62% 29.98 in 10.0 mi Calm Calm - N/A   Clear
8:53 PM 55.0 °F 41.0 °F 59% 29.98 in 10.0 mi WNW 4.6 mph - N/A   Clear
9:53 PM 54.0 °F 41.0 °F 62% 29.99 in 10.0 mi Calm Calm - N/A   Clear
10:53 PM 54.0 °F 37.9 °F 55% 29.98 in 10.0 mi WNW 3.5 mph - N/A   Clear
11:53 PM 53.1 °F 37.9 °F 57% 29.98 in 10.0 mi Calm Calm - N/A   Clear